User: anonymous   Login
Location: Gwatt
(46.7204°N, 7.6223°E)
Time: 16:52:12
(UTC+00:00)
Language:

S-56A Canister/Altair - Orbit

View from above orbital plane
View from above orbital plane
View from above satellite
View from above satellite

Ground track
Ground track

The orbit data is extracted from the following two-line orbital elements,

1 00082U 61004B   21129.21357712 -.00000090  00000-0 -46389-4 0  9999
2 00082  38.8617  72.1244 1176312 215.8480 135.7412 12.26038252847793
Epoch (UTC): 09 May 2021 05:07:33
Eccentricity: 0.1176312
inclination: 38.8617°
perigee height: 632 km
apogee height: 2501 km
right ascension of ascending node: 72.1244°
argument of perigee: 215.8480°
revolutions per day: 12.26038252
mean anomaly at epoch: 135.7412°
orbit number at epoch: 84779

The dashed part of the orbit path shows where the satellite is in the earth's shadow,  

DLR